Powrót do katalogu

IRIDIUM 33 DEB

LostPO
NORAD 35302·DEBRIS·🇺🇸 United States

Wystrzelony Sep 14, 1997 z Baikonur Cosmodrome

Loading…

Następne Przeloty (najbliższe 24 godziny)

TLE

NieaktualneSource: Space-Track

Epoka: Mar 27, 2014, 04:33 UTC

1 35302U 97051PS  14086.19027394  .00003378  00000-0  13607-2 0  9999
2 35302 086.2788 046.4080 0050069 174.9095 185.2158 14.27087543254294

Śledź IRIDIUM 33 DEB w czasie rzeczywistym z AllMySat

Download on the App Store